This is the latest recevied weather packets stored in our database for station/object DM4XI-13. If no packets are shown the sender has not sent any weather packets the latest 10 day(s).
| Time | Temp. | Humidity | Pressure | Rain* | Wind** | Luminosity | Snow |
|---|---|---|---|---|---|---|---|
| 1777732459 | 25.56° C | 22% | 1017.1 hPa | 0 mm | 1.34 m/s, 229° | 317 W/m² | - |
| 1777732398 | 25.56° C | 23% | 1017 hPa | 0 mm | 0.89 m/s, 197° | 331 W/m² | - |
| 1777732337 | 25.56° C | 22% | 1017.1 hPa | 0 mm | 1.79 m/s, 211° | 322 W/m² | - |
| 1777732276 | 25.56° C | 23% | 1017.1 hPa | 0 mm | 1.34 m/s, 193° | 326 W/m² | - |
| 1777732215 | 25.56° C | 23% | 1017.3 hPa | 0 mm | 1.34 m/s, 188° | 336 W/m² | - |
| 1777732154 | 25.56° C | 23% | 1017 hPa | 0 mm | 1.79 m/s, 211° | 356 W/m² | - |
| 1777732093 | 26.11° C | 23% | 1017.2 hPa | 0 mm | 1.34 m/s, 176° | 358 W/m² | - |
| 1777732032 | 26.11° C | 23% | 1017.1 hPa | 0 mm | 2.24 m/s, 179° | 361 W/m² | - |
| 1777731971 | 26.11° C | 25% | 1017.1 hPa | 0 mm | 0.89 m/s, 193° | 362 W/m² | - |
| 1777731910 | 26.11° C | 22% | 1017.1 hPa | 0 mm | 0.45 m/s, 200° | 375 W/m² | - |
| 1777731849 | 26.11° C | 22% | 1017.2 hPa | 0 mm | 0.89 m/s, 180° | 370 W/m² | - |
| 1777731788 | 26.11° C | 23% | 1017.3 hPa | 0 mm | 0.89 m/s, 188° | 369 W/m² | - |
| 1777731727 | 26.11° C | 23% | 1017.2 hPa | 0 mm | 0.89 m/s, 171° | 378 W/m² | - |
| 1777731666 | 26.11° C | 22% | 1017.2 hPa | 0 mm | 0.89 m/s, 171° | 371 W/m² | - |
| 1777731605 | 26.11° C | 20% | 1017.2 hPa | 0 mm | 0.89 m/s, 193° | 372 W/m² | - |
| 1777731544 | 26.11° C | 20% | 1017.2 hPa | 0 mm | 0.45 m/s, 282° | 397 W/m² | - |
| 1777731483 | 26.67° C | 21% | 1017.2 hPa | 0 mm | 0.45 m/s, 212° | 382 W/m² | - |
| 1777731422 | 26.67° C | 21% | 1017.4 hPa | 0 mm | 0.89 m/s, 234° | 401 W/m² | - |
| 1777731361 | 26.67° C | 21% | 1017.3 hPa | 0 mm | 1.79 m/s, 168° | 405 W/m² | - |
| 1777731300 | 26.67° C | 22% | 1017.1 hPa | 0 mm | 0.89 m/s, 168° | 403 W/m² | - |
| 1777731239 | 26.67° C | 20% | 1017.4 hPa | 0 mm | 0.89 m/s, 205° | 359 W/m² | - |
| 1777731178 | 26.67° C | 21% | 1017.3 hPa | 0 mm | 0.45 m/s, 192° | 368 W/m² | - |
| 1777731117 | 26.67° C | 21% | 1017.3 hPa | 0 mm | 0.45 m/s, 186° | 384 W/m² | - |
| 1777731056 | 26.11° C | 21% | 1017.3 hPa | 0 mm | 0.45 m/s, 185° | 399 W/m² | - |
| 1777730995 | 26.11° C | 23% | 1017.3 hPa | 0 mm | 0.45 m/s, 190° | 409 W/m² | - |
* Rain latest hour (hover to see other rain measurements)
** Current wind speed in m/s (hover to see current wind gust speed)